Lapse_Rate
8.3 8.3 8.0 7.7 7.4 7.2 7.0 6.8 6.6 6.3 6.2 6.0 5.9 5.8 5.8 5.8 5.9 5.9 5.7 5.5 5.5 5.4 5.7 5.8 5.7 5.6 5.8 5.8 6.0 6.0 6.2 6.2 6.1 6.2 6.1 6.1 5.9 6.0 6.0 5.9 6.0 6.0 6.1
7.4 8.2 8.0 7.7 7.4 7.2 7.0 6.9 6.5 6.2 6.2 6.1 6.0 6.0 5.7 5.7 5.8 5.9 5.8 5.5 5.5 5.5 5.7 5.8 5.8 5.8 5.9 5.9 6.1 6.0 6.1 6.1 6.2 6.0 6.1 6.1 6.0 6.1 6.1 6.1 6.1 6.1 6.1
6.2 8.0 7.7 7.6 7.6 7.4 7.1 6.6 6.3 6.3 6.4 6.3 6.2 6.1 5.9 5.9 5.7 5.8 5.6 5.7 5.6 5.7 5.8 5.7 5.7 5.7 5.8 5.9 5.9 5.8 5.8 5.9 6.0 6.2 6.1 6.0 5.9 6.0 5.9 5.9 5.9 6.0 6.0
7.2 7.5 7.9 7.9 7.6 7.5 7.0 6.4 6.2 6.2 6.3 6.3 6.4 6.1 5.9 5.8 5.7 5.5 5.6 5.7 5.7 5.9 5.7 5.6 5.6 5.7 5.7 5.8 5.8 5.9 5.7 5.7 5.9 6.1 5.9 5.8 5.8 5.8 5.9 5.9 5.9 5.8 5.8
7.5 7.5 7.4 7.7 7.4 7.1 6.7 6.4 6.3 6.3 6.4 6.4 6.2 6.0 5.7 5.7 5.6 5.5 5.6 5.7 5.7 5.7 5.6 5.6 5.8 5.8 5.8 5.9 6.0 5.8 5.7 5.7 5.9 5.7 5.8 5.8 5.9 5.9 6.0 6.0 6.1 6.1 6.0
6.2 7.1 7.0 7.3 7.3 6.4 6.7 6.5 6.4 6.3 6.3 6.4 6.2 5.9 5.9 5.7 5.5 5.5 5.7 5.7 5.7 5.7 5.7 5.8 5.7 5.6 5.8 6.0 6.0 5.8 5.6 5.8 6.4 5.8 5.8 5.9 6.1 6.2 6.2 6.2 6.2 6.1 6.2
4.9 6.2 6.8 6.6 6.6 6.0 6.2 6.3 6.3 6.2 6.3 6.2 5.8 5.7 5.8 5.6 5.5 5.7 5.6 5.6 5.8 5.7 5.5 5.5 5.6 5.7 5.9 6.0 6.0 5.9 5.7 5.8 6.4 5.9 6.0 6.0 6.1 6.1 6.1 6.1 6.1 6.2 6.1
6.3 5.5 6.4 6.6 6.7 6.4 6.3 6.3 6.3 6.1 6.1 6.1 5.9 5.7 5.6 5.7 5.5 5.5 5.6 5.7 5.6 5.6 5.5 5.6 5.7 5.9 6.2 6.1 6.1 6.0 5.9 5.7 6.3 6.3 6.0 6.1 6.2 6.2 6.2 6.1 6.0 6.0 6.0
5.9 5.2 6.0 6.4 6.1 6.2 6.1 6.0 6.0 6.0 5.9 5.5 5.6 5.2 5.4 5.2 5.5 5.4 5.5 5.8 5.8 5.9 5.9 5.9 5.9 6.1 6.1 6.2 6.2 6.0 5.9 5.9 6.0 6.1 6.1 6.0 6.1 6.1 6.1 6.1 6.1 6.1 5.9
6.2 5.2 5.8 6.2 6.2 6.1 5.7 5.5 5.5 5.5 5.2 5.0 5.2 5.1 5.2 5.0 5.4 5.4 5.3 5.4 5.5 5.7 5.9 6.1 6.0 6.1 6.1 6.2 6.0 5.9 6.0 6.0 6.5 5.8 5.7 5.7 5.8 5.9 5.9 6.0 6.0 6.0 6.1
6.3 6.2 6.1 6.0 5.7 5.3 4.7 4.7 5.3 4.9 5.0 4.7 4.8 4.8 4.9 4.9 5.1 5.1 5.1 5.3 5.5 5.9 6.5 6.1 6.1 6.0 6.0 5.9 5.9 5.9 5.9 5.9 6.1 5.7 5.7 5.8 5.9 5.9 5.9 6.0 6.0 6.1 6.0
6.7 6.5 6.3 6.2 6.1 6.2 5.7 5.2 4.8 4.7 4.8 4.8 4.6 4.5 4.5 4.6 4.9 5.2 5.4 5.5 5.7 6.5 6.4 6.1 6.0 6.0 5.9 5.9 5.9 5.8 5.9 5.6 5.9 5.7 5.9 6.1 6.2 6.1 6.1 6.1 6.1 5.9 5.8
6.7 6.7 6.2 6.3 6.1 6.1 6.2 6.0 5.5 4.5 4.5 4.4 4.2 4.3 4.2 4.8 5.2 5.5 6.0 5.8 6.1 6.7 6.1 5.9 6.0 6.0 6.0 5.7 5.7 5.8 5.7 5.8 6.3 6.0 6.1 5.9 5.7 5.6 5.6 5.6 5.7 5.7 5.8
6.1 6.1 6.5 5.9 6.3 5.9 5.9 6.0 5.4 4.7 4.0 3.7 4.1 4.1 3.9 4.2 4.7 5.9 6.1 5.8 6.5 6.4 6.0 5.9 6.1 5.9 5.7 5.8 5.7 5.5 5.7 5.9 6.2 5.8 5.4 5.3 5.4 5.6 5.7 5.7 5.9 6.0 5.9
5.8 5.9 5.7 5.9 6.0 5.9 5.5 5.0 4.5 4.7 4.0 3.6 3.6 4.1 4.2 4.5 5.7 6.4 6.1 6.3 6.3 6.0 6.1 6.1 6.0 5.7 5.7 5.7 5.7 5.8 5.9 5.8 5.3 5.7 5.5 5.5 5.5 5.5 5.7 5.7 5.7 5.9 6.0
5.5 5.6 5.4 5.7 5.6 5.7 5.2 4.3 4.6 4.7 4.4 4.7 4.5 4.5 4.7 5.5 6.0 6.3 6.5 6.4 6.0 5.9 5.9 6.0 5.8 5.8 5.8 5.8 5.9 5.9 5.9 5.6 5.2 5.3 5.8 5.7 5.8 5.7 5.6 5.6 5.5 5.5 5.7
5.4 5.1 5.2 5.4 5.0 5.4 5.1 4.8 4.8 4.6 4.7 4.5 4.6 5.1 5.5 6.0 6.2 6.5 6.1 5.9 5.8 6.0 6.1 6.0 5.9 5.7 5.8 5.9 5.8 5.7 5.6 5.5 5.5 5.5 5.2 5.6 5.9 5.8 6.0 6.0 5.9 5.9 6.0
5.2 4.8 4.9 5.4 5.0 5.0 5.0 5.0 4.7 5.0 4.8 4.8 5.3 5.6 5.9 6.2 6.3 5.9 5.9 5.9 5.9 6.2 6.0 6.0 5.8 5.7 5.8 5.7 5.6 5.7 5.5 5.5 5.6 5.6 5.7 5.5 5.7 6.0 6.1 6.4 6.3 6.2 6.3
6.8 6.9 6.7 6.5 6.2 5.5 5.3 5.1 5.1 5.5 5.2 5.1 5.4 5.9 6.1 6.3 6.0 5.9 5.8 5.9 6.2 6.2 6.2 6.0 5.9 5.9 5.8 5.6 5.5 5.6 5.5 5.3 5.4 5.9 6.1 5.7 5.8 5.9 6.1 6.4 6.5 6.3 6.4
6.8 6.8 6.5 6.3 6.1 6.2 5.6 5.3 5.3 5.4 5.8 6.0 6.0 6.1 6.2 6.2 6.1 6.0 6.0 6.4 6.3 6.4 6.2 6.1 6.1 5.9 5.8 5.8 5.5 5.6 5.6 5.5 5.7 5.9 6.3 6.1 6.2 6.2 6.2 6.4 6.4 6.4 6.5
7.1 6.7 6.5 6.3 5.9 5.7 5.8 5.9 5.9 6.4 6.4 6.3 6.2 6.3 6.1 6.0 6.6 6.3 6.3 6.6 6.2 6.3 6.3 6.1 6.0 6.0 5.8 5.9 5.3 5.3 5.4 5.6 5.6 5.7 6.3 6.1 6.0 6.2 6.4 6.3 6.3 6.4 6.4
7.3 6.9 6.7 6.6 6.3 6.2 6.3 6.3 6.2 6.2 6.2 6.2 6.2 6.3 6.0 6.1 6.7 6.5 6.5 6.8 6.3 6.2 6.0 6.3 6.2 5.9 5.7 6.1 5.4 5.4 5.1 5.0 4.7 5.0 5.2 5.8 5.9 6.0 6.1 6.0 6.2 6.4 6.6
7.3 7.1 6.9 6.9 6.7 6.5 6.4 6.3 6.4 6.4 6.5 6.6 6.8 6.7 6.8 6.8 6.7 6.7 6.5 6.6 6.3 6.0 6.2 6.4 6.2 5.9 5.8 5.7 5.6 5.5 5.4 5.3 5.3 4.7 4.9 5.0 5.4 5.8 5.9 5.8 5.9 6.2 6.5
7.4 7.2 7.1 7.1 7.1 7.0 6.8 7.0 6.9 6.7 6.8 7.0 7.2 7.1 7.0 6.9 6.7 6.5 6.5 6.2 6.1 6.3 5.9 6.2 6.1 5.9 5.9 5.4 5.5 5.7 5.6 5.6 5.7 5.4 5.6 5.2 5.2 5.4 5.6 5.3 6.0 6.3 6.5
7.6 7.6 7.5 7.3 7.3 7.3 7.2 7.2 6.9 7.1 7.0 6.8 6.8 7.0 7.0 6.9 6.6 6.6 6.1 6.3 6.4 6.2 6.1 6.0 6.2 5.8 5.5 5.2 5.1 5.1 5.4 5.5 5.8 5.8 5.6 5.5 5.4 5.1 4.9 5.1 5.7 6.1 6.3
8.0 7.9 7.8 7.7 7.7 7.7 7.7 7.5 7.4 7.1 7.0 7.0 7.2 7.1 7.1 6.7 7.0 7.1 6.7 6.6 6.6 6.2 6.1 5.7 5.7 6.0 5.8 5.8 5.6 5.1 5.1 5.4 5.5 4.8 4.9 5.2 5.1 5.2 5.0 5.0 5.2 5.4 5.8
Wind_Speed
18 21 27 29 27 27 27 27 26 25 24 23 25 23 23 23 25 24 24 23 23 26 26 26 25 25 25 23 23 21 21 23 26 31 28 28 27 28 28 27 24 23 26
16 23 29 31 26 27 27 27 26 25 25 24 24 24 22 22 23 24 24 24 24 26 25 25 25 23 23 19 17 16 16 17 22 31 30 27 26 26 26 25 25 24 26
8 19 29 31 31 28 28 27 26 25 25 25 25 24 22 21 22 23 24 24 26 25 25 25 24 22 20 16 14 13 13 11 9 2 29 23 22 23 22 24 23 25 25
15 18 23 31 32 30 28 26 26 26 26 26 25 24 22 20 22 23 24 25 25 25 25 24 23 21 16 13 12 12 12 10 10 16 21 23 20 22 22 23 24 25 25
14 18 23 30 31 30 28 26 25 26 26 26 24 24 23 22 24 24 25 26 24 23 25 24 21 18 14 13 12 13 14 15 11 27 24 21 19 21 23 24 24 25 26
7 21 23 28 32 29 28 26 26 25 24 25 25 25 24 23 24 24 25 26 24 24 23 22 20 16 14 13 12 14 18 19 23 26 22 21 17 20 21 22 23 24 25
2 19 20 25 32 30 27 26 26 24 26 24 24 23 24 24 23 23 23 24 24 23 22 20 18 15 15 14 15 17 21 19 26 25 21 18 18 19 20 21 21 22 22
14 15 19 25 25 28 27 26 25 25 22 23 25 22 23 24 23 22 23 24 23 22 21 19 17 16 15 14 13 14 18 22 24 25 22 17 17 18 18 19 20 21 22
10 8 14 20 22 24 24 24 25 26 26 24 24 22 22 23 24 22 22 23 22 21 20 19 17 15 14 12 11 13 15 15 14 19 21 16 16 16 16 17 18 19 20
23 10 10 14 21 20 22 25 25 24 27 28 24 22 23 22 24 23 21 20 20 21 20 19 17 15 13 8 6 6 8 12 22 23 19 14 14 14 15 16 16 17 18
8 11 11 13 18 21 21 25 26 28 23 27 25 23 20 15 18 17 19 19 19 19 19 18 17 15 13 9 4 4 8 12 21 19 16 10 12 12 13 15 13 15 15
6 10 11 11 10 15 19 20 23 20 17 17 19 16 15 14 15 17 17 18 18 17 16 15 14 14 11 8 3 6 8 8 18 17 14 11 9 10 13 13 13 14 13
6 8 11 10 15 16 14 16 14 15 14 12 9 13 15 13 15 13 14 12 14 13 10 11 8 9 8 16 13 12 13 8 17 16 12 10 6 9 12 12 12 12 12
9 10 11 12 12 17 17 12 16 14 7 8 6 11 10 9 11 12 11 13 11 13 13 11 7 8 9 9 9 9 10 13 14 15 14 10 5 7 11 12 11 10 11
11 10 10 9 12 13 11 9 16 7 1 5 7 10 10 9 7 12 11 14 14 13 11 8 10 7 6 8 6 7 7 7 7 14 14 13 11 10 10 10 11 9 9
12 11 12 11 12 15 7 8 7 12 13 14 13 10 14 11 8 7 7 8 10 10 12 11 11 7 6 12 6 7 8 7 7 11 15 15 16 14 11 9 9 9 8
11 12 13 13 13 8 7 11 14 18 15 13 12 12 9 6 9 5 6 6 10 15 12 8 6 5 5 8 7 5 7 1 6 4 15 15 17 17 17 12 10 8 7
15 14 13 14 13 12 12 17 15 21 15 10 14 16 13 12 13 7 6 6 12 9 6 6 3 3 3 4 4 4 5 6 5 1 2 8 15 14 14 15 12 10 8
15 16 16 16 18 15 17 16 12 10 8 11 14 13 14 10 13 11 9 10 11 9 6 5 4 4 3 1 4 3 2 1 8 8 8 1 4 14 14 13 11 10 8
16 16 17 15 16 12 10 11 8 7 9 12 9 13 17 14 16 15 9 11 10 4 4 3 3 2 2 4 4 5 4 5 4 5 7 8 12 5 7 14 11 10 9
14 15 15 14 12 12 10 12 9 8 7 8 11 17 16 18 17 14 8 11 9 4 5 6 3 5 2 2 2 3 4 6 4 3 8 11 10 12 7 3 0 9 9
19 17 18 17 15 13 10 8 8 8 7 8 9 14 15 27 17 14 9 6 9 4 5 5 5 3 3 5 2 2 3 1 3 5 4 5 5 8 8 12 9 2 1
21 20 18 19 20 17 17 12 11 7 8 9 7 6 7 18 14 15 14 8 8 6 5 5 4 4 4 2 4 1 2 1 1 4 5 3 5 3 5 8 12 11 11
19 20 20 20 19 17 17 12 13 9 9 8 8 8 8 14 10 10 13 11 7 6 3 4 3 3 1 3 3 4 2 2 1 3 2 5 4 5 6 7 9 5 6
18 19 19 18 19 18 18 15 9 10 9 8 4 8 6 6 8 11 9 10 4 4 4 5 3 1 2 3 2 1 2 3 4 4 4 2 1 4 6 11 14 11 6
18 16 17 18 18 18 17 17 12 10 8 6 6 6 7 7 8 8 4 8 12 8 6 3 2 7 4 3 2 0 2 4 2 3 4 4 5 4 5 8 10 9 8
Wind_Direction
128 129 130 130 126 126 125 122 121 119 116 112 108 106 106 104 102 101 100 100 101 95 94 90 87 86 87 88 91 92 93 95 95 86 71 66 63 59 57 53 57 54 54
120 136 132 131 128 126 123 124 122 121 118 114 110 109 107 105 106 105 104 105 105 98 96 96 94 92 91 95 94 93 95 104 113 102 86 70 65 63 66 65 61 58 56
145 139 135 132 129 127 126 126 125 124 120 117 115 113 111 110 107 107 109 110 107 105 104 100 96 94 93 88 83 84 92 110 142 79 90 80 65 72 69 65 71 67 62
141 154 141 130 130 129 128 129 128 126 123 120 118 115 111 110 111 114 114 113 111 110 106 101 98 96 92 80 64 46 28 31 26 68 68 76 72 62 72 69 65 68 68
141 146 137 129 128 128 128 130 129 125 123 121 120 115 111 112 114 113 117 115 113 111 109 104 100 98 91 80 62 35 18 5 34 74 61 65 74 68 68 68 69 67 66
318 139 137 133 129 127 129 130 126 123 121 122 120 117 114 113 113 115 117 117 115 114 110 107 106 99 87 71 53 32 13 24 99 84 76 69 67 74 73 70 69 70 69
8 124 127 124 125 128 129 126 124 122 122 120 116 115 113 110 108 109 114 116 115 113 113 109 106 97 84 64 46 32 23 31 95 90 85 74 72 73 74 74 74 73 71
97 131 116 116 119 125 124 124 120 116 111 115 115 113 109 107 104 107 113 114 115 114 112 108 103 95 84 69 50 44 30 26 96 98 93 87 83 80 79 80 79 78 74
151 110 106 106 109 111 112 116 117 116 110 102 100 104 108 107 106 106 112 116 115 114 111 108 102 96 88 79 53 43 26 11 91 97 96 92 87 86 86 85 83 82 80
135 111 93 106 105 104 107 108 104 100 106 101 100 107 105 103 106 105 109 115 116 116 114 112 111 105 103 90 74 41 4 334 91 84 90 104 100 95 94 91 90 87 84
83 99 97 93 123 113 113 111 102 101 103 109 114 121 109 117 114 106 117 116 117 120 120 122 127 130 134 124 97 34 350 33 92 89 78 119 110 105 105 102 97 92 88
88 112 105 95 88 104 128 122 114 121 113 118 127 125 102 119 115 115 114 117 123 126 131 138 151 153 157 155 110 51 48 43 96 93 82 70 125 124 119 117 109 104 102
82 101 96 103 100 93 87 90 96 106 103 118 127 103 114 119 110 109 118 119 125 136 138 155 167 202 67 65 61 39 19 59 100 91 85 72 83 136 130 123 120 117 107
91 89 99 98 96 99 94 99 107 84 30 107 84 108 127 142 133 135 146 143 171 175 171 195 112 88 95 92 89 67 34 35 81 104 89 78 51 157 142 132 130 119 108
104 112 107 100 102 94 99 119 117 104 158 196 135 169 170 166 155 158 180 160 192 201 182 122 133 157 128 94 78 105 101 53 40 114 103 92 71 135 140 136 138 126 112
96 87 96 96 90 106 122 122 133 163 182 197 186 181 194 205 179 173 142 171 180 156 191 169 172 164 171 123 89 55 40 77 48 102 119 106 103 93 106 118 132 127 119
114 117 116 116 114 125 145 171 178 167 177 195 210 209 198 191 163 166 165 203 175 198 173 113 117 113 122 99 109 163 137 141 105 36 139 135 123 123 118 118 113 106 101
135 137 141 144 146 162 153 152 175 196 187 202 211 197 193 202 165 206 212 179 187 135 137 145 182 189 154 159 151 171 119 126 110 107 51 132 151 141 132 133 130 124 115
153 157 162 167 177 179 166 182 206 212 223 235 202 168 186 210 175 202 221 185 152 153 196 176 212 169 135 165 160 146 101 227 167 198 127 172 87 151 148 152 154 155 155
164 166 166 176 175 180 169 184 209 208 209 230 226 178 187 208 191 199 235 146 159 186 183 179 173 122 146 194 229 162 172 213 212 171 165 188 175 123 146 167 170 177 169
170 168 173 184 184 178 185 198 214 192 201 209 211 192 183 211 178 179 224 143 175 216 187 190 147 142 234 71 7 255 217 192 204 208 182 193 182 160 194 98 48 156 174
171 184 185 186 189 191 190 210 220 195 212 211 179 203 181 225 170 182 214 169 174 222 192 158 159 158 204 166 187 301 278 126 214 212 209 198 186 169 174 196 195 171 208
174 187 193 185 188 194 197 204 215 194 203 208 183 192 218 198 187 186 198 178 178 217 174 165 177 193 183 165 170 158 324 337 218 171 211 194 168 169 211 262 185 191 204
180 186 194 193 195 200 205 208 201 199 209 219 183 188 188 201 203 197 191 201 190 189 168 163 159 199 225 177 168 190 202 140 337 312 194 211 187 178 193 223 246 198 203
185 188 197 198 197 198 202 216 198 198 206 204 197 171 161 150 201 202 227 171 159 130 40 128 118 171 129 98 79 8 13 275 197 211 279 302 220 207 207 201 202 207 196
190 195 194 204 203 206 199 205 222 199 208 214 188 186 176 182 199 178 148 143 108 106 92 69 159 158 125 95 119 192 256 282 232 217 224 236 229 232 206 186 173 173 204